Klamath Falls, OR

2:56 AM PST on December 03, 2016 (GMT -0800)
Klamath Falls International

Weather History for KLMT - June, 2012

Change the Weather History Date:

Sunday, June 10, 2012

  Actual Average Record
Temperature  
Mean Temperature 51 °F 56 °F  
Max Temperature 72 °F 72 °F 88 °F (1974)
Min Temperature 30 °F 41 °F 29 °F (1988)
Degree Days  
Heating Degree Days 14 9  
Month to date heating degree days 141 98  
Since 1 June heating degree days 141 98  
Since 1 July heating degree days 6696 6854  
Cooling Degree Days 0 0  
Month to date cooling degree days 0 0  
Year to date cooling degree days 1 1  
Since 1 June cooling degree days 0 0  
Moisture  
Dew Point 31 °F    
Average Humidity 53    
Maximum Humidity 92    
Minimum Humidity 16    
Precipitation  
Precipitation 0.00 in 0.03 in 0.63 in (1937)
Month to date precipitation 0.93 0.19  
Year to date precipitation 5.87 7.98  
Sea Level Pressure  
Sea Level Pressure 30.14 in    
Wind  
Wind Speed 4 mph (NW)    
Max Wind Speed 13 mph    
Max Gust Speed 15 mph    
Visibility 10 miles    
Events      
T = Trace of Precipitation, MM = Missing Value Source: NWS Daily Summary

Daily Weather History Graph

Daily Weather History Graph

Search for Another Location

Airport or City:

Trip Planner

Search our weather history database for the weather conditions in past years. The results will help you decide how hot, cold, wet, or windy it might be!

Date:

Astronomy

Jun. 10, 2012 Rise Set
Actual Time 5:30 AM PDT 8:42 PM PDT
Civil Twilight 4:56 AM PDT 9:17 PM PDT
Nautical Twilight 4:11 AM PDT 10:01 PM PDT
Astronomical Twilight 3:18 AM PDT 10:54 PM PDT
Moon 12:32 AM PDT (6/10) 12:30 PM PDT (6/10)
Length of Visible Light 16h 21m
Length of Day
15h 12m
Waning Gibbous, 57% of the Moon is Illuminated
Jun 10
Waning Gibbous
Jun 11
Last Quarter
Jun 19
New
Jun 26
First Quarter
Jul 3
Full

Hourly Weather History & Observations

Time (PDT) Temp. Windchill Dew Point Humidity Pressure Visibility Wind Dir Wind Speed Gust Speed Precip Events Conditions
12:53 AM 36.0 °F - 33.1 °F 89% 30.19 in 10.0 mi Calm Calm - N/A   Clear
1:53 AM 33.1 °F - 30.9 °F 92% 30.19 in 9.0 mi Calm Calm - N/A   Clear
2:53 AM 36.0 °F - 32.0 °F 86% 30.18 in 10.0 mi Calm Calm - N/A   Clear
3:53 AM 36.0 °F 32.1 °F 33.1 °F 89% 30.18 in 10.0 mi West 4.6 mph - N/A   Clear
4:53 AM 32.0 °F - 28.9 °F 88% 30.19 in 10.0 mi Calm Calm - N/A   Clear
5:53 AM 30.9 °F 27.5 °F 28.0 °F 89% 30.19 in 10.0 mi WSW 3.5 mph - N/A   Clear
6:00 AM 30.2 °F - 28.4 °F 93% 30.20 in 10.0 mi Calm Calm - N/A   Clear
6:53 AM 37.0 °F - 32.0 °F 82% 30.19 in 10.0 mi Calm Calm - N/A   Clear
7:53 AM 44.1 °F - 30.9 °F 60% 30.19 in 10.0 mi Calm Calm - N/A   Clear
8:53 AM 48.0 °F - 30.0 °F 50% 30.19 in 10.0 mi Calm Calm - N/A   Clear
9:53 AM 53.1 °F - 30.0 °F 41% 30.18 in 10.0 mi Variable 3.5 mph - N/A   Clear
10:53 AM 57.0 °F - 30.0 °F 36% 30.15 in 10.0 mi NNE 5.8 mph - N/A   Clear
11:53 AM 59.0 °F - 30.0 °F 33% 30.16 in 10.0 mi Calm Calm - N/A   Partly Cloudy
12:53 PM 61.0 °F - 30.0 °F 31% 30.16 in 10.0 mi Variable 4.6 mph - N/A   Partly Cloudy
1:53 PM 66.0 °F - 28.0 °F 24% 30.14 in 10.0 mi Variable 4.6 mph - N/A   Partly Cloudy
2:53 PM 66.9 °F - 26.1 °F 21% 30.12 in 10.0 mi WNW 5.8 mph - N/A   Partly Cloudy
3:53 PM 69.1 °F - 25.0 °F 19% 30.10 in 10.0 mi West 5.8 mph - N/A   Scattered Clouds
4:53 PM 71.1 °F - 26.1 °F 19% 30.10 in 10.0 mi Variable 5.8 mph - N/A   Scattered Clouds
5:53 PM 71.1 °F - 26.1 °F 19% 30.09 in 10.0 mi North 8.1 mph - N/A   Scattered Clouds
6:53 PM 70.0 °F - 21.9 °F 16% 30.07 in 10.0 mi NNW 11.5 mph - N/A   Clear
7:53 PM 66.9 °F - 26.1 °F 21% 30.06 in 10.0 mi NNW 8.1 mph - N/A   Clear
8:53 PM 61.0 °F - 37.9 °F 42% 30.07 in 10.0 mi NNW 5.8 mph - N/A   Partly Cloudy
9:53 PM 59.0 °F - 41.0 °F 51% 30.08 in 10.0 mi NW 11.5 mph - N/A   Partly Cloudy
10:53 PM 54.0 °F - 41.0 °F 62% 30.09 in 10.0 mi North 3.5 mph - N/A   Clear
11:53 PM 48.9 °F - 42.1 °F 77% 30.11 in 10.0 mi Calm Calm - N/A   Clear